Location: �clusier
(49.9361°N, 2.7869°E)
Time: 21:46:19
(UTC+00:00)

Cosmos 2058 Rocket - Pass Details

Date: 16 June 2021
Orbit: 609 x 640 km, 82.5° (Epoch: 02 August)

Event Time Altitude Azimuth Distance (km) Brightness Sun altitude
Rises 23:16:46 0° 348° (NNW) 2,939 8.4 -16.3°
Reaches altitude 10° 23:19:02 10° 347° (NNW) 2,022 7.0 -16.4°
Maximum altitude 23:23:30 73° 263° (W) 658 3.1 -16.5°
Enters shadow 23:25:34 31° 184° (S) 1,102 3.8 -16.5°
